EW0235 Weather Reports


time (UTC)temp
C
wind
direction
speed
KPH
gust
KPH
rain 1hr
cm
rain 24hr
cm
rain mn
cm
humidity
%
barometer
mb
20260504081531 7 81 0.0 0.0 0.00 0.00 0.00 85 1017.6
20260504050007 10 81 0.0 0.0 0.00 0.00 0.00 74 1018.4
20260504044512 10 81 0.0 0.0 0.00 0.00 0.00 73 1018.1
20260504043006 11 81 0.0 0.0 0.00 0.00 0.00 73 1018.4
20260504041617 11 81 0.0 0.0 0.00 0.00 0.00 71 1018.4
20260504041503 11 81 0.0 0.0 0.00 0.00 0.00 71 1018.4
20260504040059 11 81 0.0 0.0 0.00 0.00 0.00 70 1018.4
20260504034616 11 81 0.0 0.0 0.00 0.00 0.00 70 1018.5
20260504033058 11 81 0.0 0.0 0.00 0.00 0.00 68 1018.5
20260504031557 12 81 0.0 0.0 0.00 0.00 0.00 68 1018.3
20260504030059 12 81 0.0 0.0 0.00 0.00 0.00 68 1018.4
20260504024557 12 81 0.0 0.0 0.00 0.00 0.00 67 1018.3
20260504023056 12 81 0.0 0.0 0.00 0.00 0.00 64 1018.2
20260504021556 13 81 0.0 0.0 0.00 0.00 0.00 64 1018.0
20260504020119 13 81 0.0 0.0 0.00 0.00 0.00 62 1017.9
20260504014600 13 81 0.0 0.0 0.00 0.00 0.00 61 1017.8
20260504013115 14 81 0.0 0.0 0.00 0.00 0.00 58 1017.6
20260504011555 15 81 0.0 0.0 0.00 0.00 0.00 57 1017.3
20260504010055 15 81 0.0 0.0 0.00 0.00 0.00 55 1017.2
20260504004553 16 81 0.0 0.0 0.00 0.00 0.00 53 1017.0
20260504003053 16 81 0.0 0.0 0.00 0.00 0.00 50 1016.9
20260504001554 17 81 0.0 0.0 0.00 0.00 0.00 48 1016.9
20260504000053 17 43 0.0 0.0 0.00 0.00 0.00 46 1016.9
20260503234552 17 43 0.0 0.0 0.00 0.00 0.00 45 1016.8
20260503233051 18 43 0.0 0.0 0.00 0.00 0.00 45 1016.7
20260503231550 18 43 0.0 0.0 0.00 0.00 0.00 44 1016.8
20260503230053 18 43 0.0 0.0 0.00 0.00 0.00 41 1016.9
20260503224558 18 43 0.0 0.0 0.00 0.00 0.00 40 1017.0
20260503223048 18 43 0.0 0.0 0.00 0.00 0.00 41 1016.9
20260503221558 18 43 0.0 0.0 0.00 0.00 0.00 40 1017.0
20260503220047 19 46 0.0 0.0 0.00 0.00 0.00 40 1017.0
20260503214546 19 45 0.0 0.0 0.00 0.00 0.00 40 1017.1
20260503213047 19 54 0.0 0.0 0.00 0.00 0.00 41 1017.2
20260503211549 19 54 0.0 0.0 0.00 0.00 0.00 39 1017.2
20260503210045 19 49 0.0 0.0 0.00 0.00 0.00 41 1017.3
20260503204557 19 26 0.0 0.0 0.00 0.00 0.00 39 1017.4
20260503203046 19 26 0.0 0.0 0.00 0.00 0.00 42 1017.7
20260503201544 19 303 0.0 0.0 0.00 0.00 0.00 39 1017.9
20260503200044 20 315 0.0 0.0 0.00 0.00 0.00 40 1018.2
20260503194546 20 314 0.0 0.0 0.00 0.00 0.00 42 1018.4
20260503193045 19 314 0.0 0.0 0.00 0.00 0.00 40 1018.7
20260503191604 18 18 0.0 0.0 0.00 0.00 0.00 39 1019.0
20260503190038 18 34 0.0 0.0 0.00 0.00 0.00 41 1019.1
20260503184538 18 34 0.0 0.0 0.00 0.00 0.00 43 1019.3
20260503183036 19 33 0.0 0.0 0.00 0.00 0.00 44 1019.5
20260503181546 19 40 0.0 0.0 0.00 0.00 0.00 44 1019.6
20260503180038 18 39 0.0 0.0 0.00 0.00 0.00 46 1019.6
20260503174543 18 39 0.0 0.0 0.00 0.00 0.00 44 1019.7
20260503173031 18 22 0.0 0.0 0.00 0.00 0.00 46 1019.8
20260503171531 18 22 0.0 0.0 0.00 0.00 0.00 45 1020.0